GW6247 Weather Reports


time (UTC)temp
C
wind
direction
speed
KPH
gust
KPH
rain 1hr
cm
rain 24hr
cm
rain mn
cm
humidity
%
barometer
mb
20260506034528 10 73 4.8 6.4 0.00 0.61 0.36 76 1014.5
20260506033012 11 215 1.6 4.8 0.00 0.61 0.36 72 1014.2
20260506031517 11 215 3.2 6.4 0.00 0.61 0.36 70 1013.9
20260506030022 11 216 1.6 6.4 0.00 0.61 0.36 71 1013.8
20260506024526 12 217 1.6 4.8 0.00 0.61 0.36 69 1013.6
20260506023029 12 216 1.6 8.0 0.00 0.61 0.36 66 1013.5
20260506021514 13 216 3.2 6.4 0.00 0.61 0.36 63 1013.4
20260506020030 15 217 3.2 6.4 0.00 0.61 0.36 59 1013.3
20260506014525 16 186 3.2 8.0 0.00 0.61 0.36 51 1013.3
20260506013029 17 182 4.8 8.0 0.00 0.61 0.36 48 1013.3
20260506011509 17 39 1.6 4.8 0.00 0.64 0.36 45 1013.3
20260506010025 17 39 3.2 8.0 0.00 0.66 0.36 46 1013.3
20260506004509 17 39 4.8 8.0 0.00 0.66 0.36 46 1013.3
20260506003006 17 33 3.2 6.4 0.00 0.66 0.36 45 1013.3
20260506001512 17 349 1.6 8.0 0.00 0.66 0.36 48 1013.4
20260506000028 17 33 3.2 9.7 0.00 0.66 0.36 47 1013.5
20260505234522 17 21 4.8 11.3 0.00 0.66 0.36 52 1013.5
20260505233003 17 345 3.2 8.0 0.00 0.66 0.36 47 1013.5
20260505231513 17 2 3.2 8.0 0.00 0.66 0.36 47 1013.5
20260505230028 17 300 1.6 8.0 0.00 0.66 0.36 46 1013.7
20260505224516 17 225 4.8 11.3 0.00 0.66 0.36 49 1013.8
20260505223022 16 1 4.8 8.0 0.00 0.66 0.36 52 1014.0
20260505221508 16 288 3.2 9.7 0.00 0.66 0.36 54 1014.0
20260505220011 16 356 4.8 8.0 0.00 0.66 0.36 52 1014.1
20260505214520 15 360 4.8 9.7 0.00 0.66 0.36 57 1014.3
20260505213021 15 328 0.0 8.0 0.00 0.66 0.36 60 1014.5
20260505211530 15 320 1.6 8.0 0.00 0.66 0.36 61 1014.8
20260505210013 15 290 6.4 11.3 0.00 0.66 0.36 62 1014.9
20260505204511 14 273 4.8 8.0 0.00 0.66 0.36 67 1014.9
20260505203017 13 61 3.2 6.4 0.00 0.66 0.36 70 1015.0
20260505201520 12 25 1.6 6.4 0.00 0.66 0.36 74 1015.1
20260505200023 12 13 3.2 9.7 0.00 0.66 0.36 72 1015.2
20260505194510 11 84 4.8 9.7 0.00 0.66 0.36 79 1015.2
20260505193013 11 29 4.8 9.7 0.00 0.66 0.36 78 1015.3
20260505191519 10 352 4.8 6.4 0.00 0.66 0.36 78 1015.1
20260505190022 10 343 0.0 4.8 0.00 0.66 0.36 80 1015.2
20260505184530 9 345 3.2 6.4 0.00 0.66 0.36 81 1015.3
20260505183014 8 335 3.2 6.4 0.00 0.66 0.36 79 1015.2
20260505181515 8 297 1.6 6.4 0.00 0.66 0.36 79 1015.2
20260505180020 8 295 1.6 6.4 0.00 0.66 0.36 86 1014.9
20260505174535 8 295 0.0 4.8 0.00 0.66 0.36 84 1014.7
20260505173028 8 295 1.6 4.8 0.00 0.66 0.36 84 1014.4
20260505171517 8 294 1.6 4.8 0.00 0.69 0.36 87 1014.3
20260505170016 7 4 1.6 4.8 0.00 0.69 0.36 88 1014.2
20260505164521 7 4 0.0 4.8 0.00 0.69 0.36 86 1014.3
20260505163024 7 4 1.6 8.0 0.00 0.69 0.36 86 1014.2
20260505161528 7 10 3.2 4.8 0.00 0.69 0.36 88 1013.6
20260505153034 6 210 1.6 6.4 0.00 0.69 0.36 93 1013.4
20260505151525 6 179 3.2 6.4 0.00 0.69 0.36 93 1013.7
20260505124526 6 14 1.6 3.2 0.00 0.69 0.36 93 1011.7
20260505123044 6 14 0.0 0.0 0.00 0.69 0.36 93 1011.7
20260505121516 6 15 0.0 0.0 0.00 0.69 0.36 93 1011.4
20260505120021 6 15 0.0 0.0 0.00 0.69 0.36 93 1011.8
20260505114524 6 15 0.0 0.0 0.03 0.69 0.36 93 1011.5
20260505113029 6 15 0.0 4.8 0.05 0.69 0.36 93 1011.6
20260505111533 6 15 1.6 3.2 0.05 0.69 0.36 93 1011.6
20260505101511 6 36 1.6 9.7 0.13 0.64 0.30 93 1012.0
20260505100014 6 41 4.8 8.0 0.13 0.61 0.28 92 1012.0
20260505094520 6 41 0.0 1.6 0.08 0.53 0.20 92 1012.4
20260505093026 6 41 1.6 3.2 0.08 0.51 0.18 92 1012.2
20260505091506 6 41 0.0 4.8 0.10 0.51 0.18 92 1012.4
20260505090012 6 46 0.0 3.2 0.08 0.48 0.15 92 1012.9
20260505084516 6 46 1.6 6.4 0.08 0.46 0.13 91 1012.7
20260505083020 6 121 0.0 0.0 0.05 0.43 0.10 92 1012.3
20260505081528 6 121 1.6 4.8 0.03 0.41 0.08 92 1012.4
20260505080010 6 121 0.0 4.8 0.08 0.41 0.08 92 1012.7
20260505074513 6 117 0.0 0.0 0.08 0.38 0.05 91 1012.9
20260505073020 7 117 0.0 0.0 0.08 0.38 0.05 92 1012.7
20260505071520 7 117 0.0 4.8 0.08 0.38 0.05 91 1012.7
20260505070027 6 99 1.6 3.2 0.05 0.33 0.00 91 1012.9
20260505064511 7 100 0.0 4.8 0.03 0.30 0.30 91 1012.6
20260505063016 7 73 0.0 0.0 0.08 0.30 0.30 92 1012.4
20260505061519 7 73 0.0 3.2 0.13 0.30 0.30 91 1012.1
20260505060022 7 73 0.0 3.2 0.13 0.28 0.28 91 1012.2
20260505054543 7 73 0.0 3.2 0.13 0.28 0.28 91 1012.5
20260505053011 7 73 3.2 4.8 0.10 0.23 0.23 90 1013.0
20260505051516 7 70 0.0 0.0 0.08 0.18 0.18 90 1013.1
20260505041512 7 70 1.6 4.8 0.03 0.10 0.10 86 1012.3
20260505040021 7 70 0.0 4.8 0.03 0.10 0.10 86 1012.4